Weather History for Ogden, UT

Change the Weather History Date:

Sunday, September 8, 2013

  Actual Average Record
Temperature  
Mean Temperature 68 °F -  
Max Temperature 75 °F 82 °F 94 °F (1961)
Min Temperature 61 °F 52 °F 37 °F (1945)
Cooling Degree Days 3    
Growing Degree Days 18 (Base 50)    
Moisture  
Dew Point 55 °F    
Average Humidity 69    
Maximum Humidity 90    
Minimum Humidity 44    
Precipitation  
Precipitation 0.20 in - - ()
Sea Level Pressure  
Sea Level Pressure 29.93 in    
Wind  
Wind Speed 6 mph (South)    
Max Wind Speed 14 mph    
Max Gust Speed -    
Visibility 10 miles    
Events Rain    
Averages and records for this station are not official NWS values.
T = Trace of Precipitation, MM = Missing Value Source: NWS Daily Summary

Daily Weather History Graph

Daily Weather History Graph

Search for Another Location

Airport:

Trip Planner

Search our weather history database for the weather conditions in past years. The results will help you decide how hot, cold, wet, or windy it might be!

Date:

Astronomy

Sep. 08, 2013 Rise Set
Actual Time 7:01 AM MDT 7:48 PM MDT
Civil Twilight 6:33 AM MDT 8:16 PM MDT
Nautical Twilight 6:00 AM MDT 8:49 PM MDT
Astronomical Twilight 5:26 AM MDT 9:23 PM MDT
Moon 10:25 AM MDT (9/8) 9:23 PM MDT (9/8)
Length of Visible Light 13h 42m
Length of Day
12h 46m
Waxing Crescent, 11% of the Moon is Illuminated
Sep 8
Waxing Crescent
Sep 12
First Quarter
Sep 19
Full
Sep 26
Last Quarter
Oct 4
New

Hourly Weather History & Observations

Time (MDT) Temp. Dew Point Humidity Pressure Visibility Wind Dir Wind Speed Gust Speed Precip Events Conditions
12:53 AM 64.0 °F 57.0 °F 78% 29.95 in 10.0 mi NE 4.6 mph - N/A   Clear
1:53 AM 64.0 °F 57.0 °F 78% 29.96 in 10.0 mi South 8.1 mph - N/A   Clear
2:53 AM 64.0 °F 55.9 °F 75% 29.95 in 10.0 mi SSE 6.9 mph - N/A   Clear
3:53 AM 64.0 °F 55.9 °F 75% 29.94 in 10.0 mi SE 3.5 mph - N/A   Mostly Cloudy
4:53 AM 63.0 °F 55.9 °F 78% 29.96 in 10.0 mi SSE 8.1 mph - 0.00 in Rain Light Rain
5:53 AM 64.0 °F 55.9 °F 75% 29.97 in 10.0 mi South 4.6 mph - 0.00 in   Overcast
6:53 AM 63.0 °F 57.0 °F 81% 30.00 in 9.0 mi SSE 13.8 mph - 0.01 in Rain Light Rain
7:53 AM 61.0 °F 57.9 °F 90% 30.01 in 5.0 mi WNW 6.9 mph - 0.12 in Rain Rain
8:53 AM 61.0 °F 57.9 °F 90% 30.00 in 10.0 mi SE 4.6 mph - 0.06 in Rain Light Rain
9:53 AM 62.1 °F 59.0 °F 90% 29.99 in 10.0 mi WNW 4.6 mph - 0.01 in Rain Light Rain
10:53 AM 63.0 °F 57.9 °F 84% 29.99 in 10.0 mi West 6.9 mph - 0.00 in   Overcast
11:53 AM 66.9 °F 57.9 °F 73% 29.98 in 10.0 mi SW 8.1 mph - N/A   Clear
12:53 PM 69.1 °F 55.0 °F 61% 29.96 in 10.0 mi Calm Calm - N/A   Clear
1:53 PM 70.0 °F 55.0 °F 59% 29.95 in 10.0 mi Calm Calm - N/A   Clear
2:53 PM 73.0 °F 53.1 °F 49% 29.92 in 10.0 mi South 9.2 mph - N/A   Partly Cloudy
3:53 PM 72.0 °F 53.1 °F 51% 29.90 in 10.0 mi South 6.9 mph - N/A   Clear
4:53 PM 73.9 °F 53.1 °F 48% 29.87 in 10.0 mi South 8.1 mph - N/A   Clear
5:53 PM 75.0 °F 52.0 °F 44% 29.85 in 10.0 mi SSE 8.1 mph - N/A   Clear
6:53 PM 73.0 °F 53.1 °F 49% 29.86 in 10.0 mi SSE 8.1 mph - N/A   Clear
7:53 PM 70.0 °F 54.0 °F 57% 29.86 in 10.0 mi SSE 6.9 mph - N/A   Clear
8:53 PM 68.0 °F 54.0 °F 61% 29.87 in 10.0 mi South 3.5 mph - N/A   Clear
9:53 PM 66.0 °F 54.0 °F 65% 29.88 in 10.0 mi South 9.2 mph - N/A   Clear
10:53 PM 64.9 °F 54.0 °F 68% 29.87 in 10.0 mi South 6.9 mph - N/A   Clear
11:53 PM 64.0 °F 54.0 °F 70% 29.87 in 10.0 mi South 5.8 mph - N/A   Clear